Time,TemperatureF,DewpointF,PressureIn,WindDirection,WindDirectionDegrees,WindSpeedMPH,WindSpeedGustMPH,Humidity,HourlyPrecipIn,Conditions,Clouds,dailyrainin,SoftwareType,DateUTC
2013-06-21 00:02:00,78.3,63.3,30.03,SSE,148,5.0,7.0,60,0.00,,,0.00,Wunderground v.1.15,2013-06-21 05:02:00,
2013-06-21 00:04:00,78.3,63.3,30.03,SE,133,5.0,7.0,60,0.00,,,0.00,Wunderground v.1.15,2013-06-21 05:04:00,
2013-06-21 00:06:00,78.3,63.7,30.03,SE,131,6.0,7.0,61,0.00,,,0.00,Wunderground v.1.15,2013-06-21 05:06:00,
2013-06-21 00:10:00,78.1,63.6,30.03,ESE,106,5.0,5.0,61,0.00,,,0.00,Wunderground v.1.15,2013-06-21 05:10:00,
2013-06-21 00:12:00,78.0,63.5,30.03,SE,124,5.0,7.0,61,0.00,,,0.00,Wunderground v.1.15,2013-06-21 05:12:00,
2013-06-21 00:14:00,77.8,63.3,30.03,ESE,105,4.0,7.0,61,0.00,,,0.00,Wunderground v.1.15,2013-06-21 05:14:00,
2013-06-21 00:16:00,77.8,63.3,30.03,East,96,4.0,7.0,61,0.00,,,0.00,Wunderground v.1.15,2013-06-21 05:16:00,
2013-06-21 00:18:00,77.7,63.6,30.03,SE,146,4.0,7.0,62,0.00,,,0.00,Wunderground v.1.15,2013-06-21 05:18:00,
2013-06-21 00:22:00,77.5,63.5,30.03,ESE,120,4.0,7.0,62,0.00,,,0.00,Wunderground v.1.15,2013-06-21 05:22:00,
2013-06-21 00:26:00,77.2,63.6,30.03,SE,141,4.0,7.0,63,0.00,,,0.00,Wunderground v.1.15,2013-06-21 05:26:00,
2013-06-21 00:30:00,77.0,63.4,30.03,ESE,117,4.0,4.0,63,0.00,,,0.00,Wunderground v.1.15,2013-06-21 05:30:00,
2013-06-21 00:34:00,76.8,63.2,30.03,SSE,158,4.0,7.0,63,0.00,,,0.00,Wunderground v.1.15,2013-06-21 05:34:00,
2013-06-21 00:36:00,76.8,63.2,30.03,South,181,3.0,7.0,63,0.00,,,0.00,Wunderground v.1.15,2013-06-21 05:36:00,
2013-06-21 00:38:00,76.7,63.6,30.03,SSE,165,3.0,7.0,64,0.00,,,0.00,Wunderground v.1.15,2013-06-21 05:38:00,
2013-06-21 00:44:00,76.7,63.2,30.03,East,96,3.0,7.0,63,0.00,,,0.00,Wunderground v.1.15,2013-06-21 05:44:00,
2013-06-21 00:46:00,76.7,63.2,30.03,ESE,108,4.0,7.0,63,0.00,,,0.00,Wunderground v.1.15,2013-06-21 05:46:00,
2013-06-21 00:48:00,76.7,63.6,30.03,East,101,4.0,7.0,64,0.00,,,0.00,Wunderground v.1.15,2013-06-21 05:48:00,
2013-06-21 00:54:00,76.5,63.4,30.03,ESE,117,4.0,7.0,64,0.00,,,0.00,Wunderground v.1.15,2013-06-21 05:54:00,
2013-06-21 00:58:00,76.5,63.4,30.03,SE,128,4.0,7.0,64,0.00,,,0.00,Wunderground v.1.15,2013-06-21 05:58:00,
2013-06-21 01:02:00,76.6,63.5,30.02,ESE,117,4.0,7.0,64,0.00,,,0.00,Wunderground v.1.15,2013-06-21 06:02:00,
2013-06-21 01:06:00,76.5,63.4,30.02,SE,133,4.0,8.0,64,0.00,,,0.00,Wunderground v.1.15,2013-06-21 06:06:00,
2013-06-21 01:10:00,76.4,63.3,30.02,SE,131,5.0,7.0,64,0.00,,,0.00,Wunderground v.1.15,2013-06-21 06:10:00,
2013-06-21 01:12:00,76.3,63.2,30.02,SE,128,5.0,7.0,64,0.00,,,0.00,Wunderground v.1.15,2013-06-21 06:12:00,
2013-06-21 01:18:00,76.1,63.5,30.02,ESE,115,5.0,7.0,65,0.00,,,0.00,Wunderground v.1.15,2013-06-21 06:18:00,
2013-06-21 01:22:00,76.0,63.4,30.02,SSE,155,4.0,7.0,65,0.00,,,0.00,Wunderground v.1.15,2013-06-21 06:22:00,
2013-06-21 01:24:00,76.1,63.5,30.02,SE,143,4.0,7.0,65,0.00,,,0.00,Wunderground v.1.15,2013-06-21 06:24:00,
2013-06-21 01:26:00,76.1,63.5,30.02,ESE,105,3.0,7.0,65,0.00,,,0.00,Wunderground v.1.15,2013-06-21 06:26:00,
2013-06-21 01:32:00,75.9,63.7,30.02,ESE,114,4.0,7.0,66,0.00,,,0.00,Wunderground v.1.15,2013-06-21 06:32:00,
2013-06-21 01:34:00,75.9,63.7,30.02,ENE,77,4.0,7.0,66,0.00,,,0.00,Wunderground v.1.15,2013-06-21 06:34:00,
2013-06-21 01:36:00,75.8,63.6,30.02,SE,131,3.0,7.0,66,0.00,,,0.00,Wunderground v.1.15,2013-06-21 06:36:00,
2013-06-21 01:38:00,75.8,63.6,30.02,ESE,120,3.0,7.0,66,0.00,,,0.00,Wunderground v.1.15,2013-06-21 06:38:00,
2013-06-21 01:40:00,75.8,63.6,30.02,East,101,3.0,7.0,66,0.00,,,0.00,Wunderground v.1.15,2013-06-21 06:40:00,
2013-06-21 01:42:00,75.8,63.6,30.02,ESE,117,3.0,7.0,66,0.00,,,0.00,Wunderground v.1.15,2013-06-21 06:42:00,
2013-06-21 01:44:00,75.7,63.5,30.02,ESE,119,4.0,7.0,66,0.00,,,0.00,Wunderground v.1.15,2013-06-21 06:44:00,
2013-06-21 01:46:00,75.7,63.5,30.02,SE,139,4.0,7.0,66,0.00,,,0.00,Wunderground v.1.15,2013-06-21 06:46:00,
2013-06-21 01:48:00,75.7,63.5,30.02,SE,140,4.0,7.0,66,0.00,,,0.00,Wunderground v.1.15,2013-06-21 06:48:00,
2013-06-21 01:52:00,75.8,63.6,30.02,SE,129,4.0,7.0,66,0.00,,,0.00,Wunderground v.1.15,2013-06-21 06:52:00,
2013-06-21 01:54:00,75.9,63.7,30.02,SSE,155,4.0,7.0,66,0.00,,,0.00,Wunderground v.1.15,2013-06-21 06:54:00,
2013-06-21 01:56:00,76.0,63.8,30.02,ESE,112,4.0,7.0,66,0.00,,,0.00,Wunderground v.1.15,2013-06-21 06:56:00,
2013-06-21 01:58:00,76.0,63.4,30.02,SSE,152,4.0,7.0,65,0.00,,,0.00,Wunderground v.1.15,2013-06-21 06:58:00,
2013-06-21 02:00:00,76.1,63.9,30.02,SE,141,4.0,4.0,66,0.00,,,0.00,Wunderground v.1.15,2013-06-21 07:00:00,
2013-06-21 02:06:00,75.9,63.3,30.02,ESE,110,4.0,7.0,65,0.00,,,0.00,Wunderground v.1.15,2013-06-21 07:06:00,
2013-06-21 02:08:00,75.9,63.3,30.02,SSE,163,4.0,7.0,65,0.00,,,0.00,Wunderground v.1.15,2013-06-21 07:08:00,
2013-06-21 02:10:00,76.0,63.4,30.02,SE,139,4.0,4.0,65,0.00,,,0.00,Wunderground v.1.15,2013-06-21 07:10:00,
2013-06-21 02:12:00,76.1,63.5,30.02,SSE,155,3.0,7.0,65,0.00,,,0.00,Wunderground v.1.15,2013-06-21 07:12:00,
2013-06-21 02:16:00,76.2,63.6,30.02,ESE,113,3.0,7.0,65,0.00,,,0.00,Wunderground v.1.15,2013-06-21 07:16:00,
2013-06-21 02:20:00,76.1,63.5,30.02,East,94,3.0,7.0,65,0.00,,,0.00,Wunderground v.1.15,2013-06-21 07:20:00,
2013-06-21 02:22:00,76.0,63.4,30.02,SE,134,3.0,7.0,65,0.00,,,0.00,Wunderground v.1.15,2013-06-21 07:22:00,
2013-06-21 02:28:00,75.9,63.3,30.02,ESE,112,3.0,7.0,65,0.00,,,0.00,Wunderground v.1.15,2013-06-21 07:28:00,
2013-06-21 02:34:00,75.8,63.6,30.02,ESE,112,4.0,9.0,66,0.00,,,0.00,Wunderground v.1.15,2013-06-21 07:34:00,
2013-06-21 02:38:00,75.6,63.4,30.02,ESE,120,4.0,9.0,66,0.00,,,0.00,Wunderground v.1.15,2013-06-21 07:38:00,
2013-06-21 02:40:00,75.6,63.4,30.02,ESE,117,4.0,7.0,66,0.00,,,0.00,Wunderground v.1.15,2013-06-21 07:40:00,
2013-06-21 02:42:00,75.6,63.4,30.02,ENE,71,5.0,7.0,66,0.00,,,0.00,Wunderground v.1.15,2013-06-21 07:42:00,
2013-06-21 02:44:00,75.5,63.3,30.02,SSE,150,5.0,7.0,66,0.00,,,0.00,Wunderground v.1.15,2013-06-21 07:44:00,
2013-06-21 02:46:00,75.5,63.3,30.02,SE,133,4.0,7.0,66,0.00,,,0.00,Wunderground v.1.15,2013-06-21 07:46:00,
2013-06-21 02:48:00,75.3,63.6,30.02,SE,133,5.0,7.0,67,0.00,,,0.00,Wunderground v.1.15,2013-06-21 07:48:00,
2013-06-21 02:54:00,75.1,63.4,30.02,SE,131,5.0,7.0,67,0.00,,,0.00,Wunderground v.1.15,2013-06-21 07:54:00,
2013-06-21 02:56:00,75.0,63.3,30.02,SE,124,5.0,7.0,67,0.00,,,0.00,Wunderground v.1.15,2013-06-21 07:56:00,
2013-06-21 02:58:00,74.9,63.6,30.02,SE,127,5.0,7.0,68,0.00,,,0.00,Wunderground v.1.15,2013-06-21 07:58:00,
2013-06-21 03:02:00,74.8,63.5,30.02,ESE,108,5.0,7.0,68,0.00,,,0.00,Wunderground v.1.15,2013-06-21 08:02:00,
2013-06-21 03:04:00,74.8,63.5,30.03,SE,124,5.0,7.0,68,0.00,,,0.00,Wunderground v.1.15,2013-06-21 08:04:00,
2013-06-21 03:06:00,74.7,63.4,30.03,SE,127,4.0,7.0,68,0.00,,,0.00,Wunderground v.1.15,2013-06-21 08:06:00,
2013-06-21 03:08:00,74.6,63.3,30.03,SSE,153,4.0,7.0,68,0.00,,,0.00,Wunderground v.1.15,2013-06-21 08:08:00,
2013-06-21 03:12:00,74.6,63.8,30.03,ESE,116,4.0,7.0,69,0.00,,,0.00,Wunderground v.1.15,2013-06-21 08:12:00,
2013-06-21 03:16:00,74.4,63.6,30.03,SE,129,4.0,7.0,69,0.00,,,0.00,Wunderground v.1.15,2013-06-21 08:16:00,
2013-06-21 03:20:00,74.4,63.6,30.02,SE,132,4.0,4.0,69,0.00,,,0.00,Wunderground v.1.15,2013-06-21 08:20:00,
2013-06-21 03:24:00,74.2,63.4,30.02,East,101,3.0,7.0,69,0.00,,,0.00,Wunderground v.1.15,2013-06-21 08:24:00,
2013-06-21 03:26:00,74.2,63.8,30.02,SE,128,4.0,7.0,70,0.00,,,0.00,Wunderground v.1.15,2013-06-21 08:26:00,
2013-06-21 03:28:00,74.3,63.5,30.02,ESE,115,4.0,7.0,69,0.00,,,0.00,Wunderground v.1.15,2013-06-21 08:28:00,
2013-06-21 03:32:00,74.3,63.5,30.02,SSE,161,5.0,7.0,69,0.00,,,0.00,Wunderground v.1.15,2013-06-21 08:32:00,
2013-06-21 03:34:00,74.2,63.4,30.02,ESE,119,6.0,7.0,69,0.00,,,0.00,Wunderground v.1.15,2013-06-21 08:34:00,
2013-06-21 03:38:00,74.3,63.9,30.02,SSE,148,6.0,7.0,70,0.00,,,0.00,Wunderground v.1.15,2013-06-21 08:38:00,
2013-06-21 03:40:00,74.3,63.5,30.02,ESE,115,6.0,7.0,69,0.00,,,0.00,Wunderground v.1.15,2013-06-21 08:40:00,
2013-06-21 03:44:00,74.2,63.8,30.01,East,95,6.0,7.0,70,0.00,,,0.00,Wunderground v.1.15,2013-06-21 08:44:00,
2013-06-21 03:46:00,74.2,63.8,30.01,SE,131,6.0,7.0,70,0.00,,,0.00,Wunderground v.1.15,2013-06-21 08:46:00,
2013-06-21 03:48:00,74.2,63.8,30.01,SE,136,6.0,7.0,70,0.00,,,0.00,Wunderground v.1.15,2013-06-21 08:48:00,
2013-06-21 03:50:00,74.2,63.8,30.01,ESE,116,6.0,7.0,70,0.00,,,0.00,Wunderground v.1.15,2013-06-21 08:50:00,
2013-06-21 03:52:00,74.1,63.7,30.01,ESE,117,7.0,7.0,70,0.00,,,0.00,Wunderground v.1.15,2013-06-21 08:52:00,
2013-06-21 03:54:00,74.1,63.7,30.01,ESE,121,7.0,7.0,70,0.00,,,0.00,Wunderground v.1.15,2013-06-21 08:54:00,
2013-06-21 03:56:00,74.0,63.6,30.01,ESE,115,6.0,7.0,70,0.00,,,0.00,Wunderground v.1.15,2013-06-21 08:56:00,
2013-06-21 03:58:00,74.0,63.6,30.01,ESE,105,6.0,7.0,70,0.00,,,0.00,Wunderground v.1.15,2013-06-21 08:58:00,
2013-06-21 04:00:00,74.0,63.6,30.01,SE,139,6.0,6.0,70,0.00,,,0.00,Wunderground v.1.15,2013-06-21 09:00:00,
2013-06-21 04:04:00,74.0,63.6,30.01,SE,136,5.0,7.0,70,0.00,,,0.00,Wunderground v.1.15,2013-06-21 09:04:00,
2013-06-21 04:06:00,74.0,64.0,30.01,ESE,122,5.0,7.0,71,0.00,,,0.00,Wunderground v.1.15,2013-06-21 09:06:00,
2013-06-21 04:08:00,74.0,64.0,30.01,ESE,119,4.0,7.0,71,0.00,,,0.00,Wunderground v.1.15,2013-06-21 09:08:00,
2013-06-21 04:14:00,73.9,63.9,30.01,SE,136,4.0,7.0,71,0.00,,,0.00,Wunderground v.1.15,2013-06-21 09:14:00,
2013-06-21 04:20:00,74.0,64.0,30.01,ESE,108,5.0,7.0,71,0.00,,,0.00,Wunderground v.1.15,2013-06-21 09:20:00,
2013-06-21 04:22:00,74.1,64.1,30.01,SE,133,5.0,7.0,71,0.00,,,0.00,Wunderground v.1.15,2013-06-21 09:22:00,
2013-06-21 04:28:00,74.0,64.0,30.00,SE,131,5.0,7.0,71,0.00,,,0.00,Wunderground v.1.15,2013-06-21 09:28:00,
2013-06-21 04:30:00,74.0,64.0,30.00,ESE,115,5.0,7.0,71,0.00,,,0.00,Wunderground v.1.15,2013-06-21 09:30:00,
2013-06-21 04:32:00,73.9,64.3,30.00,SSE,157,5.0,7.0,72,0.00,,,0.00,Wunderground v.1.15,2013-06-21 09:32:00,
2013-06-21 04:36:00,73.8,64.2,30.00,SSE,160,5.0,7.0,72,0.00,,,0.00,Wunderground v.1.15,2013-06-21 09:36:00,
2013-06-21 04:38:00,73.7,64.1,30.00,SE,124,5.0,7.0,72,0.00,,,0.00,Wunderground v.1.15,2013-06-21 09:38:00,
2013-06-21 04:42:00,73.5,64.3,30.01,ESE,121,5.0,7.0,73,0.00,,,0.00,Wunderground v.1.15,2013-06-21 09:42:00,
2013-06-21 04:46:00,73.3,64.1,30.01,SE,141,4.0,7.0,73,0.00,,,0.00,Wunderground v.1.15,2013-06-21 09:46:00,
2013-06-21 04:48:00,73.2,64.0,30.01,ESE,111,4.0,7.0,73,0.00,,,0.00,Wunderground v.1.15,2013-06-21 09:48:00,
2013-06-21 04:50:00,73.2,64.0,30.01,SE,128,4.0,7.0,73,0.00,,,0.00,Wunderground v.1.15,2013-06-21 09:50:00,
2013-06-21 04:54:00,73.1,64.3,30.01,ESE,112,4.0,7.0,74,0.00,,,0.00,Wunderground v.1.15,2013-06-21 09:54:00,
2013-06-21 04:58:00,73.1,64.3,30.01,East,100,4.0,7.0,74,0.00,,,0.00,Wunderground v.1.15,2013-06-21 09:58:00,
2013-06-21 05:00:00,73.2,64.4,30.01,SE,138,4.0,4.0,74,0.00,,,0.00,Wunderground v.1.15,2013-06-21 10:00:00,
2013-06-21 05:06:00,73.1,64.3,30.01,SE,137,3.0,7.0,74,0.00,,,0.00,Wunderground v.1.15,2013-06-21 10:06:00,
2013-06-21 05:08:00,73.2,64.4,30.01,SSE,160,3.0,7.0,74,0.00,,,0.00,Wunderground v.1.15,2013-06-21 10:08:00,
2013-06-21 05:10:00,73.2,64.4,30.01,SSE,150,3.0,7.0,74,0.00,,,0.00,Wunderground v.1.15,2013-06-21 10:10:00,
2013-06-21 05:16:00,73.2,64.4,30.02,ESE,121,3.0,7.0,74,0.00,,,0.00,Wunderground v.1.15,2013-06-21 10:16:00,
2013-06-21 05:18:00,73.1,64.7,30.01,SE,136,3.0,7.0,75,0.00,,,0.00,Wunderground v.1.15,2013-06-21 10:18:00,
2013-06-21 05:22:00,73.1,64.7,30.02,SE,131,3.0,7.0,75,0.00,,,0.00,Wunderground v.1.15,2013-06-21 10:22:00,
2013-06-21 05:24:00,73.0,64.6,30.02,ESE,103,3.0,7.0,75,0.00,,,0.00,Wunderground v.1.15,2013-06-21 10:24:00,
2013-06-21 05:28:00,72.9,64.5,30.02,East,99,3.0,7.0,75,0.00,,,0.00,Wunderground v.1.15,2013-06-21 10:28:00,
2013-06-21 05:30:00,72.8,64.8,30.02,SSE,150,3.0,3.0,76,0.00,,,0.00,Wunderground v.1.15,2013-06-21 10:30:00,
2013-06-21 05:32:00,72.8,64.8,30.02,East,80,3.0,4.0,76,0.00,,,0.00,Wunderground v.1.15,2013-06-21 10:32:00,
2013-06-21 05:34:00,72.7,64.7,30.01,ESE,122,3.0,7.0,76,0.00,,,0.00,Wunderground v.1.15,2013-06-21 10:34:00,
2013-06-21 05:36:00,72.6,64.6,30.02,SSE,150,3.0,7.0,76,0.00,,,0.00,Wunderground v.1.15,2013-06-21 10:36:00,
2013-06-21 05:38:00,72.6,64.6,30.02,SE,141,3.0,7.0,76,0.00,,,0.00,Wunderground v.1.15,2013-06-21 10:38:00,
2013-06-21 05:44:00,72.6,65.0,30.01,East,94,3.0,7.0,77,0.00,,,0.00,Wunderground v.1.15,2013-06-21 10:44:00,
2013-06-21 05:46:00,72.6,65.0,30.01,SE,127,3.0,7.0,77,0.00,,,0.00,Wunderground v.1.15,2013-06-21 10:46:00,
2013-06-21 05:48:00,72.6,65.0,30.00,ESE,102,4.0,7.0,77,0.00,,,0.00,Wunderground v.1.15,2013-06-21 10:48:00,
2013-06-21 05:52:00,72.6,65.0,30.01,SSE,153,5.0,8.0,77,0.00,,,0.00,Wunderground v.1.15,2013-06-21 10:52:00,
2013-06-21 05:56:00,72.8,65.2,30.01,SE,129,5.0,8.0,77,0.00,,,0.00,Wunderground v.1.15,2013-06-21 10:56:00,
2013-06-21 06:02:00,73.2,65.6,30.01,ESE,108,3.0,8.0,77,0.00,,,0.00,Wunderground v.1.15,2013-06-21 11:02:00,
2013-06-21 06:04:00,73.3,65.3,30.01,East,95,4.0,8.0,76,0.00,,,0.00,Wunderground v.1.15,2013-06-21 11:04:00,
2013-06-21 06:06:00,73.5,65.5,30.01,SSE,153,4.0,8.0,76,0.00,,,0.00,Wunderground v.1.15,2013-06-21 11:06:00,
2013-06-21 06:10:00,73.7,65.7,30.01,SE,131,4.0,7.0,76,0.00,,,0.00,Wunderground v.1.15,2013-06-21 11:10:00,
2013-06-21 06:14:00,73.9,65.5,30.01,SSE,165,4.0,7.0,75,0.00,,,0.00,Wunderground v.1.15,2013-06-21 11:14:00,
2013-06-21 06:16:00,74.0,65.6,30.01,SSE,160,3.0,7.0,75,0.00,,,0.00,Wunderground v.1.15,2013-06-21 11:16:00,
2013-06-21 06:18:00,74.1,65.7,30.01,SE,136,4.0,7.0,75,0.00,,,0.00,Wunderground v.1.15,2013-06-21 11:18:00,
2013-06-21 06:20:00,74.2,65.8,30.01,SE,129,4.0,7.0,75,0.00,,,0.00,Wunderground v.1.15,2013-06-21 11:20:00,
2013-06-21 06:22:00,74.3,65.9,30.00,SE,142,4.0,7.0,75,0.00,,,0.00,Wunderground v.1.15,2013-06-21 11:22:00,
2013-06-21 06:24:00,74.4,66.0,30.00,ESE,105,4.0,7.0,75,0.00,,,0.00,Wunderground v.1.15,2013-06-21 11:24:00,
2013-06-21 06:26:00,74.5,66.1,30.01,South,175,5.0,7.0,75,0.00,,,0.00,Wunderground v.1.15,2013-06-21 11:26:00,
2013-06-21 06:28:00,74.6,66.1,30.00,SSE,152,5.0,7.0,75,0.00,,,0.00,Wunderground v.1.15,2013-06-21 11:28:00,
2013-06-21 06:30:00,74.6,66.1,30.00,SE,124,5.0,7.0,75,0.00,,,0.00,Wunderground v.1.15,2013-06-21 11:30:00,
2013-06-21 06:34:00,74.6,66.1,30.00,ESE,120,6.0,9.0,75,0.00,,,0.00,Wunderground v.1.15,2013-06-21 11:34:00,
2013-06-21 06:36:00,74.7,66.2,30.00,SE,129,7.0,9.0,75,0.00,,,0.00,Wunderground v.1.15,2013-06-21 11:36:00,
2013-06-21 06:38:00,74.8,66.3,30.00,SSE,148,8.0,9.0,75,0.00,,,0.00,Wunderground v.1.15,2013-06-21 11:38:00,
2013-06-21 06:44:00,75.3,66.4,30.00,SE,129,8.0,10.0,74,0.00,,,0.00,Wunderground v.1.15,2013-06-21 11:44:00,
2013-06-21 06:46:00,75.5,66.6,30.00,SE,136,8.0,10.0,74,0.00,,,0.00,Wunderground v.1.15,2013-06-21 11:46:00,
2013-06-21 06:50:00,75.8,66.9,30.00,SE,131,6.0,6.0,74,0.00,,,0.00,Wunderground v.1.15,2013-06-21 11:50:00,
2013-06-21 06:52:00,76.0,66.7,30.00,SSE,149,6.0,7.0,73,0.00,,,0.00,Wunderground v.1.15,2013-06-21 11:52:00,
2013-06-21 06:54:00,76.1,66.8,30.00,SSE,165,6.0,7.0,73,0.00,,,0.00,Wunderground v.1.15,2013-06-21 11:54:00,
2013-06-21 06:56:00,76.2,66.9,30.00,South,183,6.0,7.0,73,0.00,,,0.00,Wunderground v.1.15,2013-06-21 11:56:00,
2013-06-21 07:00:00,76.5,67.2,30.00,ESE,119,6.0,7.0,73,0.00,,,0.00,Wunderground v.1.15,2013-06-21 12:00:00,
2013-06-21 07:02:00,76.7,67.4,30.00,SSE,160,5.0,9.0,73,0.00,,,0.00,Wunderground v.1.15,2013-06-21 12:02:00,
2013-06-21 07:04:00,76.8,67.1,30.00,SSE,156,6.0,9.0,72,0.00,,,0.00,Wunderground v.1.15,2013-06-21 12:04:00,
2013-06-21 07:10:00,77.2,67.5,30.00,SSE,165,6.0,7.0,72,0.00,,,0.00,Wunderground v.1.15,2013-06-21 12:10:00,
2013-06-21 07:12:00,77.2,67.5,30.00,SSE,167,6.0,7.0,72,0.00,,,0.00,Wunderground v.1.15,2013-06-21 12:12:00,
2013-06-21 07:16:00,77.3,67.6,30.00,South,186,6.0,11.0,72,0.00,,,0.00,Wunderground v.1.15,2013-06-21 12:16:00,
2013-06-21 07:18:00,77.5,67.8,30.00,SE,139,6.0,11.0,72,0.00,,,0.00,Wunderground v.1.15,2013-06-21 12:18:00,
2013-06-21 07:22:00,77.7,68.0,30.00,South,170,6.0,8.0,72,0.00,,,0.00,Wunderground v.1.15,2013-06-21 12:22:00,
2013-06-21 07:24:00,77.7,68.0,30.00,South,173,7.0,8.0,72,0.00,,,0.00,Wunderground v.1.15,2013-06-21 12:24:00,
2013-06-21 07:26:00,77.8,68.0,29.99,SSE,156,7.0,8.0,72,0.00,,,0.00,Wunderground v.1.15,2013-06-21 12:26:00,
2013-06-21 07:28:00,77.8,68.0,29.99,SE,139,7.0,8.0,72,0.00,,,0.00,Wunderground v.1.15,2013-06-21 12:28:00,
2013-06-21 07:34:00,78.1,68.3,29.98,SE,135,6.0,7.0,72,0.00,,,0.00,Wunderground v.1.15,2013-06-21 12:34:00,
2013-06-21 07:38:00,78.3,68.5,29.98,South,172,6.0,10.0,72,0.00,,,0.00,Wunderground v.1.15,2013-06-21 12:38:00,
2013-06-21 07:40:00,78.4,68.2,29.98,SW,226,6.0,7.0,71,0.00,,,0.00,Wunderground v.1.15,2013-06-21 12:40:00,
2013-06-21 07:42:00,78.5,68.7,29.98,SE,141,7.0,8.0,72,0.00,,,0.00,Wunderground v.1.15,2013-06-21 12:42:00,
2013-06-21 07:44:00,78.7,68.9,29.97,SSE,152,7.0,8.0,72,0.00,,,0.00,Wunderground v.1.15,2013-06-21 12:44:00,
2013-06-21 07:48:00,78.9,68.7,29.97,South,186,8.0,17.0,71,0.00,,,0.00,Wunderground v.1.15,2013-06-21 12:48:00,
2013-06-21 07:50:00,78.9,68.7,29.97,South,174,8.0,11.0,71,0.00,,,0.00,Wunderground v.1.15,2013-06-21 12:50:00,
2013-06-21 07:54:00,79.0,68.8,29.96,East,85,8.0,13.0,71,0.00,,,0.00,Wunderground v.1.15,2013-06-21 12:54:00,
2013-06-21 07:56:00,79.1,68.9,29.96,East,88,8.0,13.0,71,0.00,,,0.00,Wunderground v.1.15,2013-06-21 12:56:00,
2013-06-21 08:00:00,79.2,68.6,29.97,South,176,7.0,9.0,70,0.00,,,0.00,Wunderground v.1.15,2013-06-21 13:00:00,
2013-06-21 08:02:00,79.3,68.7,29.97,South,183,8.0,16.0,70,0.00,,,0.00,Wunderground v.1.15,2013-06-21 13:02:00,
2013-06-21 08:06:00,79.5,68.9,29.98,SE,132,9.0,16.0,70,0.00,,,0.00,Wunderground v.1.15,2013-06-21 13:06:00,
2013-06-21 08:08:00,79.6,69.0,29.97,SE,143,10.0,16.0,70,0.00,,,0.00,Wunderground v.1.15,2013-06-21 13:08:00,
2013-06-21 08:10:00,79.6,69.0,29.97,ESE,121,10.0,10.0,70,0.00,,,0.00,Wunderground v.1.15,2013-06-21 13:10:00,
2013-06-21 08:12:00,79.7,69.0,29.97,SSW,194,9.0,10.0,70,0.00,,,0.00,Wunderground v.1.15,2013-06-21 13:12:00,
2013-06-21 08:14:00,79.8,69.1,29.97,SE,127,9.0,11.0,70,0.00,,,0.00,Wunderground v.1.15,2013-06-21 13:14:00,
2013-06-21 08:16:00,79.8,69.1,29.97,SSW,210,9.0,11.0,70,0.00,,,0.00,Wunderground v.1.15,2013-06-21 13:16:00,
2013-06-21 08:20:00,79.9,69.2,29.97,SSW,194,9.0,9.0,70,0.00,,,0.00,Wunderground v.1.15,2013-06-21 13:20:00,
2013-06-21 08:22:00,80.0,69.3,29.97,WSW,253,10.0,10.0,70,0.00,,,0.00,Wunderground v.1.15,2013-06-21 13:22:00,
2013-06-21 08:26:00,80.2,69.1,29.98,South,172,10.0,15.0,69,0.00,,,0.00,Wunderground v.1.15,2013-06-21 13:26:00,
2013-06-21 08:30:00,80.3,69.6,29.98,SSE,150,11.0,12.0,70,0.00,,,0.00,Wunderground v.1.15,2013-06-21 13:30:00,
2013-06-21 08:32:00,80.3,69.2,29.99,SSW,194,12.0,12.0,69,0.00,,,0.00,Wunderground v.1.15,2013-06-21 13:32:00,
2013-06-21 08:34:00,80.3,69.6,29.99,SSE,150,12.0,12.0,70,0.00,,,0.00,Wunderground v.1.15,2013-06-21 13:34:00,
2013-06-21 08:36:00,80.3,69.2,29.99,SSE,156,12.0,14.0,69,0.00,,,0.00,Wunderground v.1.15,2013-06-21 13:36:00,
2013-06-21 08:38:00,80.3,69.6,29.99,South,181,12.0,14.0,70,0.00,,,0.00,Wunderground v.1.15,2013-06-21 13:38:00,
2013-06-21 08:40:00,80.3,69.2,29.99,South,186,12.0,14.0,69,0.00,,,0.00,Wunderground v.1.15,2013-06-21 13:40:00,
2013-06-21 08:44:00,80.3,69.2,29.99,SSE,155,13.0,14.0,69,0.00,,,0.00,Wunderground v.1.15,2013-06-21 13:44:00,
2013-06-21 08:46:00,80.4,69.3,29.99,South,177,12.0,14.0,69,0.00,,,0.00,Wunderground v.1.15,2013-06-21 13:46:00,
2013-06-21 08:48:00,80.4,69.3,30.00,SSW,197,12.0,14.0,69,0.00,,,0.00,Wunderground v.1.15,2013-06-21 13:48:00,
2013-06-21 08:52:00,80.5,69.4,30.00,SSW,195,12.0,12.0,69,0.00,,,0.00,Wunderground v.1.15,2013-06-21 13:52:00,
2013-06-21 08:54:00,80.5,69.0,30.00,South,184,12.0,12.0,68,0.00,,,0.00,Wunderground v.1.15,2013-06-21 13:54:00,
2013-06-21 09:00:00,80.5,69.0,30.00,SE,144,14.0,14.0,68,0.00,,,0.00,Wunderground v.1.15,2013-06-21 14:00:00,
2013-06-21 09:06:00,80.6,69.5,30.00,SSE,163,12.0,15.0,69,0.00,,,0.00,Wunderground v.1.15,2013-06-21 14:06:00,
2013-06-21 09:10:00,80.7,69.6,30.00,South,173,11.0,11.0,69,0.00,,,0.00,Wunderground v.1.15,2013-06-21 14:10:00,
2013-06-21 09:14:00,80.8,69.7,30.00,South,174,9.0,11.0,69,0.00,,,0.00,Wunderground v.1.15,2013-06-21 14:14:00,
2013-06-21 09:20:00,81.1,70.0,29.99,SSE,163,8.0,10.0,69,0.00,,,0.00,Wunderground v.1.15,2013-06-21 14:20:00,
2013-06-21 09:22:00,81.2,70.1,29.99,SSW,193,8.0,10.0,69,0.00,,,0.00,Wunderground v.1.15,2013-06-21 14:22:00,
2013-06-21 09:24:00,81.3,69.7,29.99,South,169,9.0,17.0,68,0.00,,,0.00,Wunderground v.1.15,2013-06-21 14:24:00,
2013-06-21 09:28:00,81.5,70.3,29.99,South,173,9.0,17.0,69,0.00,,,0.00,Wunderground v.1.15,2013-06-21 14:28:00,
2013-06-21 09:32:00,81.6,70.0,29.99,SE,126,9.0,9.0,68,0.00,,,0.00,Wunderground v.1.15,2013-06-21 14:32:00,
2013-06-21 09:34:00,81.6,70.0,29.98,SSW,192,9.0,12.0,68,0.00,,,0.00,Wunderground v.1.15,2013-06-21 14:34:00,
2013-06-21 09:36:00,81.7,70.5,29.99,South,191,9.0,14.0,69,0.00,,,0.00,Wunderground v.1.15,2013-06-21 14:36:00,
2013-06-21 09:38:00,81.8,70.2,29.99,South,191,10.0,14.0,68,0.00,,,0.00,Wunderground v.1.15,2013-06-21 14:38:00,
2013-06-21 09:40:00,81.9,69.9,29.99,SSW,194,10.0,11.0,67,0.00,,,0.00,Wunderground v.1.15,2013-06-21 14:40:00,
2013-06-21 09:42:00,81.9,69.9,29.99,South,174,10.0,14.0,67,0.00,,,0.00,Wunderground v.1.15,2013-06-21 14:42:00,
2013-06-21 09:44:00,82.0,70.4,29.99,East,100,11.0,14.0,68,0.00,,,0.00,Wunderground v.1.15,2013-06-21 14:44:00,
2013-06-21 09:46:00,82.1,70.5,29.99,SE,131,10.0,14.0,68,0.00,,,0.00,Wunderground v.1.15,2013-06-21 14:46:00,
2013-06-21 09:48:00,82.3,70.7,30.00,ESE,120,9.0,14.0,68,0.00,,,0.00,Wunderground v.1.15,2013-06-21 14:48:00,
2013-06-21 09:52:00,82.4,70.8,30.00,SSW,203,9.0,10.0,68,0.00,,,0.00,Wunderground v.1.15,2013-06-21 14:52:00,
2013-06-21 09:54:00,82.4,70.3,30.01,SW,229,9.0,12.0,67,0.00,,,0.00,Wunderground v.1.15,2013-06-21 14:54:00,
2013-06-21 09:58:00,82.4,70.8,30.01,South,183,11.0,16.0,68,0.00,,,0.00,Wunderground v.1.15,2013-06-21 14:58:00,
2013-06-21 10:00:00,82.4,70.8,30.01,WSW,253,11.0,17.0,68,0.00,,,0.00,Wunderground v.1.15,2013-06-21 15:00:00,
2013-06-21 10:04:00,82.4,70.3,30.01,SE,141,13.0,17.0,67,0.00,,,0.00,Wunderground v.1.15,2013-06-21 15:04:00,
2013-06-21 10:08:00,82.6,70.5,30.00,SSE,156,13.0,17.0,67,0.00,,,0.00,Wunderground v.1.15,2013-06-21 15:08:00,
2013-06-21 10:10:00,82.7,70.6,30.00,South,179,13.0,13.0,67,0.00,,,0.00,Wunderground v.1.15,2013-06-21 15:10:00,
2013-06-21 10:12:00,82.7,71.1,30.00,SW,225,13.0,13.0,68,0.00,,,0.00,Wunderground v.1.15,2013-06-21 15:12:00,
2013-06-21 10:14:00,82.8,70.7,30.00,South,190,13.0,13.0,67,0.00,,,0.00,Wunderground v.1.15,2013-06-21 15:14:00,
2013-06-21 10:18:00,82.8,70.7,30.00,South,170,13.0,13.0,67,0.00,,,0.00,Wunderground v.1.15,2013-06-21 15:18:00,
2013-06-21 10:20:00,82.9,70.8,29.99,SSW,208,13.0,13.0,67,0.00,,,0.00,Wunderground v.1.15,2013-06-21 15:20:00,
2013-06-21 10:24:00,83.0,71.3,30.00,SSE,160,13.0,17.0,68,0.00,,,0.00,Wunderground v.1.15,2013-06-21 15:24:00,
2013-06-21 10:26:00,83.0,71.3,29.99,SSE,167,14.0,17.0,68,0.00,,,0.00,Wunderground v.1.15,2013-06-21 15:26:00,
2013-06-21 10:28:00,83.0,71.3,29.99,South,181,13.0,17.0,68,0.00,,,0.00,Wunderground v.1.15,2013-06-21 15:28:00,
2013-06-21 10:30:00,83.0,71.3,29.99,SSW,203,13.0,13.0,68,0.00,,,0.00,Wunderground v.1.15,2013-06-21 15:30:00,
2013-06-21 10:32:00,83.0,71.3,30.00,SSW,204,13.0,16.0,68,0.00,,,0.00,Wunderground v.1.15,2013-06-21 15:32:00,
2013-06-21 10:38:00,83.0,71.3,30.00,SSW,203,12.0,16.0,68,0.00,,,0.00,Wunderground v.1.15,2013-06-21 15:38:00,
2013-06-21 10:42:00,82.9,71.3,30.00,SSW,198,11.0,12.0,68,0.00,,,0.00,Wunderground v.1.15,2013-06-21 15:42:00,
2013-06-21 10:44:00,83.0,71.3,30.00,South,173,10.0,12.0,68,0.00,,,0.00,Wunderground v.1.15,2013-06-21 15:44:00,
2013-06-21 10:50:00,82.9,71.3,30.00,SW,219,9.0,15.0,68,0.00,,,0.00,Wunderground v.1.15,2013-06-21 15:50:00,
2013-06-21 10:52:00,82.8,71.2,30.02,WNW,288,9.0,15.0,68,0.00,,,0.00,Wunderground v.1.15,2013-06-21 15:52:00,
2013-06-21 10:54:00,82.3,70.7,30.05,North,353,10.0,15.0,68,0.00,,,0.00,Wunderground v.1.15,2013-06-21 15:54:00,
2013-06-21 10:56:00,80.0,64.9,30.05,NNW,340,12.0,19.0,60,0.00,,,0.00,Wunderground v.1.15,2013-06-21 15:56:00,
2013-06-21 11:00:00,75.9,64.6,30.06,NW,316,17.0,17.0,68,0.00,,,0.00,Wunderground v.1.15,2013-06-21 16:00:00,
2013-06-21 11:02:00,73.4,65.0,30.06,NNW,339,19.0,19.0,75,0.99,,,0.03,Wunderground v.1.15,2013-06-21 16:02:00,
2013-06-21 11:04:00,71.6,64.7,30.06,NNW,339,19.0,19.0,79,0.46,,,0.04,Wunderground v.1.15,2013-06-21 16:04:00,
2013-06-21 11:06:00,70.4,65.3,30.07,NNW,335,19.0,19.0,84,0.18,,,0.04,Wunderground v.1.15,2013-06-21 16:06:00,
2013-06-21 11:12:00,68.7,65.3,30.06,North,4,14.0,15.0,89,0.06,,,0.04,Wunderground v.1.15,2013-06-21 16:12:00,
2013-06-21 11:14:00,68.6,65.5,30.06,NNW,342,14.0,15.0,90,0.05,,,0.04,Wunderground v.1.15,2013-06-21 16:14:00,
2013-06-21 11:16:00,68.5,65.4,30.06,North,8,14.0,26.0,90,0.04,,,0.04,Wunderground v.1.15,2013-06-21 16:16:00,
2013-06-21 11:20:00,68.1,65.7,30.06,North,358,16.0,17.0,92,0.00,,,0.04,Wunderground v.1.15,2013-06-21 16:20:00,
2013-06-21 11:24:00,67.9,65.8,30.07,North,358,16.0,22.0,93,0.00,,,0.05,Wunderground v.1.15,2013-06-21 16:24:00,
2013-06-21 11:28:00,67.5,65.7,30.07,North,11,16.0,22.0,94,0.23,,,0.08,Wunderground v.1.15,2013-06-21 16:28:00,
2013-06-21 11:30:00,67.5,65.7,30.07,NW,326,17.0,17.0,94,0.14,,,0.08,Wunderground v.1.15,2013-06-21 16:30:00,
2013-06-21 11:34:00,67.5,66.0,30.07,North,4,16.0,18.0,95,0.52,,,0.10,Wunderground v.1.15,2013-06-21 16:34:00,
2013-06-21 11:36:00,67.4,65.9,30.06,North,6,15.0,18.0,95,0.35,,,0.11,Wunderground v.1.15,2013-06-21 16:36:00,
2013-06-21 11:38:00,67.4,66.2,30.07,NW,312,14.0,18.0,96,0.15,,,0.11,Wunderground v.1.15,2013-06-21 16:38:00,
2013-06-21 11:42:00,67.4,66.2,30.07,NNE,12,12.0,13.0,96,0.09,,,0.12,Wunderground v.1.15,2013-06-21 16:42:00,
2013-06-21 11:44:00,67.5,66.3,30.07,NNW,348,12.0,13.0,96,0.09,,,0.12,Wunderground v.1.15,2013-06-21 16:44:00,
2013-06-21 11:46:00,67.5,66.3,30.07,North,4,12.0,13.0,96,0.09,,,0.12,Wunderground v.1.15,2013-06-21 16:46:00,
2013-06-21 11:50:00,67.5,66.3,30.07,NNE,18,12.0,12.0,96,0.62,,,0.14,Wunderground v.1.15,2013-06-21 16:50:00,
2013-06-21 11:52:00,67.5,66.3,30.07,NNE,25,12.0,12.0,96,0.72,,,0.16,Wunderground v.1.15,2013-06-21 16:52:00,
2013-06-21 11:54:00,67.5,66.3,30.07,NE,37,12.0,12.0,96,0.44,,,0.17,Wunderground v.1.15,2013-06-21 16:54:00,
2013-06-21 11:56:00,67.5,66.3,30.07,East,85,11.0,12.0,96,0.20,,,0.17,Wunderground v.1.15,2013-06-21 16:56:00,
2013-06-21 12:02:00,67.6,66.4,30.07,ENE,67,9.0,10.0,96,0.14,,,0.19,Wunderground v.1.15,2013-06-21 17:02:00,
2013-06-21 12:04:00,67.7,66.5,30.08,ENE,58,8.0,10.0,96,0.14,,,0.19,Wunderground v.1.15,2013-06-21 17:04:00,
2013-06-21 12:12:00,67.9,66.7,30.09,NE,44,7.0,7.0,96,0.06,,,0.19,Wunderground v.1.15,2013-06-21 17:12:00,
2013-06-21 12:16:00,68.0,66.8,30.08,NE,55,7.0,7.0,96,0.04,,,0.19,Wunderground v.1.15,2013-06-21 17:16:00,
2013-06-21 12:18:00,68.0,66.8,30.08,NNE,30,6.0,7.0,96,0.04,,,0.19,Wunderground v.1.15,2013-06-21 17:18:00,
2013-06-21 12:20:00,68.1,66.9,30.08,NNE,26,6.0,7.0,96,0.00,,,0.19,Wunderground v.1.15,2013-06-21 17:20:00,
2013-06-21 12:24:00,68.1,66.9,30.08,NNW,342,6.0,7.0,96,0.00,,,0.20,Wunderground v.1.15,2013-06-21 17:24:00,
2013-06-21 12:28:00,68.1,66.9,30.08,NNW,339,6.0,7.0,96,0.00,,,0.20,Wunderground v.1.15,2013-06-21 17:28:00,
2013-06-21 12:34:00,68.1,67.2,30.08,NNE,23,6.0,7.0,97,0.10,,,0.21,Wunderground v.1.15,2013-06-21 17:34:00,
2013-06-21 12:38:00,68.0,67.1,30.08,NE,38,5.0,7.0,97,0.07,,,0.21,Wunderground v.1.15,2013-06-21 17:38:00,
2013-06-21 12:44:00,68.2,67.3,30.09,ESE,110,4.0,7.0,97,0.14,,,0.23,Wunderground v.1.15,2013-06-21 17:44:00,
2013-06-21 12:46:00,68.3,67.4,30.09,ESE,113,4.0,7.0,97,0.14,,,0.23,Wunderground v.1.15,2013-06-21 17:46:00,
2013-06-21 12:48:00,68.3,67.4,30.10,ESE,113,4.0,7.0,97,0.11,,,0.23,Wunderground v.1.15,2013-06-21 17:48:00,
2013-06-21 12:50:00,68.4,67.5,30.10,ESE,110,5.0,8.0,97,0.08,,,0.23,Wunderground v.1.15,2013-06-21 17:50:00,
2013-06-21 12:58:00,68.5,67.0,30.11,NNE,32,5.0,8.0,95,0.04,,,0.23,Wunderground v.1.15,2013-06-21 17:58:00,
2013-06-21 13:02:00,68.7,67.5,30.11,NNE,20,5.0,7.0,96,0.00,,,0.23,Wunderground v.1.15,2013-06-21 18:02:00,
2013-06-21 13:04:00,68.6,67.4,30.11,NNE,32,5.0,7.0,96,0.00,,,0.23,Wunderground v.1.15,2013-06-21 18:04:00,
2013-06-21 13:08:00,68.8,67.6,30.12,North,351,6.0,7.0,96,0.00,,,0.23,Wunderground v.1.15,2013-06-21 18:08:00,
2013-06-21 13:12:00,68.9,67.7,30.13,NNW,335,6.0,7.0,96,0.00,,,0.23,Wunderground v.1.15,2013-06-21 18:12:00,
2013-06-21 13:18:00,68.8,67.6,30.15,WNW,300,6.0,7.0,96,0.00,,,0.24,Wunderground v.1.15,2013-06-21 18:18:00,
2013-06-21 13:22:00,68.8,67.6,30.14,NW,307,6.0,7.0,96,0.49,,,0.27,Wunderground v.1.15,2013-06-21 18:22:00,
2013-06-21 13:24:00,68.8,67.6,30.13,NNW,341,5.0,7.0,96,0.26,,,0.27,Wunderground v.1.15,2013-06-21 18:24:00,
2013-06-21 13:26:00,68.7,67.5,30.12,NNW,335,5.0,7.0,96,0.19,,,0.28,Wunderground v.1.15,2013-06-21 18:26:00,
2013-06-21 13:30:00,68.6,67.4,30.10,North,11,4.0,7.0,96,0.51,,,0.30,Wunderground v.1.15,2013-06-21 18:30:00,
2013-06-21 13:34:00,68.6,67.4,30.09,NE,37,5.0,9.0,96,0.17,,,0.31,Wunderground v.1.15,2013-06-21 18:34:00,
2013-06-21 13:36:00,68.6,67.4,30.09,North,5,6.0,9.0,96,0.11,,,0.31,Wunderground v.1.15,2013-06-21 18:36:00,
2013-06-21 13:42:00,68.6,67.4,30.08,NNE,15,8.0,10.0,96,0.05,,,0.31,Wunderground v.1.15,2013-06-21 18:42:00,
2013-06-21 13:46:00,68.6,67.4,30.05,East,80,9.0,13.0,96,0.04,,,0.31,Wunderground v.1.15,2013-06-21 18:46:00,
2013-06-21 13:48:00,68.6,67.4,30.04,East,91,10.0,13.0,96,0.00,,,0.31,Wunderground v.1.15,2013-06-21 18:48:00,
2013-06-21 13:52:00,68.7,67.5,30.04,East,94,11.0,12.0,96,0.00,,,0.31,Wunderground v.1.15,2013-06-21 18:52:00,
2013-06-21 13:54:00,68.7,67.5,30.03,ESE,108,11.0,14.0,96,0.00,,,0.31,Wunderground v.1.15,2013-06-21 18:54:00,
2013-06-21 13:56:00,68.8,67.6,30.03,SSE,158,12.0,14.0,96,0.00,,,0.31,Wunderground v.1.15,2013-06-21 18:56:00,
2013-06-21 14:00:00,69.0,67.5,30.02,East,92,13.0,14.0,95,0.00,,,0.31,Wunderground v.1.15,2013-06-21 19:00:00,
2013-06-21 14:04:00,69.1,67.3,30.00,East,84,15.0,16.0,94,0.00,,,0.31,Wunderground v.1.15,2013-06-21 19:04:00,
2013-06-21 14:06:00,69.1,67.3,29.99,East,86,15.0,16.0,94,0.00,,,0.31,Wunderground v.1.15,2013-06-21 19:06:00,
2013-06-21 14:08:00,69.2,67.4,29.99,East,98,15.0,16.0,94,0.00,,,0.31,Wunderground v.1.15,2013-06-21 19:08:00,
2013-06-21 14:10:00,69.3,67.5,29.98,ENE,70,15.0,15.0,94,0.00,,,0.31,Wunderground v.1.15,2013-06-21 19:10:00,
2013-06-21 14:12:00,69.4,67.3,29.98,ESE,113,15.0,15.0,93,0.00,,,0.31,Wunderground v.1.15,2013-06-21 19:12:00,
2013-06-21 14:16:00,69.9,67.2,29.97,ESE,108,15.0,15.0,91,0.00,,,0.31,Wunderground v.1.15,2013-06-21 19:16:00,
2013-06-21 14:18:00,70.0,67.3,29.97,East,91,16.0,17.0,91,0.00,,,0.31,Wunderground v.1.15,2013-06-21 19:18:00,
2013-06-21 14:22:00,70.1,67.0,29.95,ESE,116,16.0,17.0,90,0.00,,,0.31,Wunderground v.1.15,2013-06-21 19:22:00,
2013-06-21 14:24:00,70.1,67.0,29.95,ESE,110,16.0,17.0,90,0.00,,,0.31,Wunderground v.1.15,2013-06-21 19:24:00,
2013-06-21 14:28:00,70.3,66.9,29.94,ESE,112,18.0,24.0,89,0.00,,,0.31,Wunderground v.1.15,2013-06-21 19:28:00,
2013-06-21 14:30:00,70.3,66.9,29.94,ESE,110,19.0,25.0,89,0.00,,,0.31,Wunderground v.1.15,2013-06-21 19:30:00,
2013-06-21 14:32:00,70.3,67.2,29.95,ESE,117,20.0,25.0,90,0.00,,,0.31,Wunderground v.1.15,2013-06-21 19:32:00,
2013-06-21 14:34:00,70.2,67.1,29.95,ESE,117,20.0,25.0,90,0.00,,,0.31,Wunderground v.1.15,2013-06-21 19:34:00,
2013-06-21 14:36:00,70.1,67.3,29.95,ESE,121,20.0,25.0,91,0.00,,,0.31,Wunderground v.1.15,2013-06-21 19:36:00,
2013-06-21 14:38:00,70.0,66.9,29.94,ESE,105,19.0,25.0,90,0.00,,,0.31,Wunderground v.1.15,2013-06-21 19:38:00,
2013-06-21 14:40:00,70.0,66.9,29.94,SE,124,19.0,19.0,90,0.00,,,0.31,Wunderground v.1.15,2013-06-21 19:40:00,
2013-06-21 14:44:00,70.1,67.0,29.93,SE,127,18.0,19.0,90,0.00,,,0.31,Wunderground v.1.15,2013-06-21 19:44:00,
2013-06-21 14:48:00,70.1,67.0,29.92,ESE,115,17.0,19.0,90,0.00,,,0.31,Wunderground v.1.15,2013-06-21 19:48:00,
2013-06-21 14:50:00,70.2,67.1,29.92,ESE,110,18.0,18.0,90,0.00,,,0.31,Wunderground v.1.15,2013-06-21 19:50:00,
2013-06-21 14:52:00,70.3,67.2,29.92,ESE,122,17.0,18.0,90,0.00,,,0.31,Wunderground v.1.15,2013-06-21 19:52:00,
2013-06-21 14:56:00,70.3,67.2,29.91,SE,124,18.0,20.0,90,0.00,,,0.31,Wunderground v.1.15,2013-06-21 19:56:00,
2013-06-21 15:00:00,70.5,67.4,29.91,ESE,122,18.0,21.0,90,0.00,,,0.31,Wunderground v.1.15,2013-06-21 20:00:00,
2013-06-21 15:02:00,70.5,67.1,29.91,ESE,115,18.0,21.0,89,0.00,,,0.31,Wunderground v.1.15,2013-06-21 20:02:00,
2013-06-21 15:04:00,70.6,67.2,29.91,ESE,120,18.0,21.0,89,0.00,,,0.31,Wunderground v.1.15,2013-06-21 20:04:00,
2013-06-21 15:10:00,70.8,67.1,29.91,ESE,102,18.0,18.0,88,0.00,,,0.31,Wunderground v.1.15,2013-06-21 20:10:00,
2013-06-21 15:12:00,70.7,67.0,29.90,ESE,110,18.0,21.0,88,0.00,,,0.31,Wunderground v.1.15,2013-06-21 20:12:00,
2013-06-21 15:16:00,70.8,66.7,29.91,SE,132,18.0,21.0,87,0.00,,,0.31,Wunderground v.1.15,2013-06-21 20:16:00,
2013-06-21 15:18:00,70.8,66.7,29.91,SE,134,17.0,21.0,87,0.00,,,0.31,Wunderground v.1.15,2013-06-21 20:18:00,
2013-06-21 15:22:00,70.7,66.6,29.91,SSE,147,17.0,17.0,87,0.00,,,0.31,Wunderground v.1.15,2013-06-21 20:22:00,
2013-06-21 15:26:00,70.7,66.6,29.91,ESE,122,17.0,19.0,87,0.00,,,0.32,Wunderground v.1.15,2013-06-21 20:26:00,
2013-06-21 15:28:00,70.7,66.6,29.91,SE,136,17.0,19.0,87,0.00,,,0.32,Wunderground v.1.15,2013-06-21 20:28:00,
2013-06-21 15:30:00,70.7,66.6,29.91,SSE,149,17.0,17.0,87,0.00,,,0.32,Wunderground v.1.15,2013-06-21 20:30:00,
2013-06-21 15:32:00,70.7,66.6,29.91,SE,131,17.0,17.0,87,0.00,,,0.32,Wunderground v.1.15,2013-06-21 20:32:00,
2013-06-21 15:34:00,70.7,66.6,29.91,ESE,110,17.0,17.0,87,0.00,,,0.32,Wunderground v.1.15,2013-06-21 20:34:00,
2013-06-21 15:36:00,70.7,66.6,29.91,East,100,16.0,17.0,87,0.00,,,0.32,Wunderground v.1.15,2013-06-21 20:36:00,
2013-06-21 15:38:00,70.8,66.4,29.91,SE,127,16.0,17.0,86,0.00,,,0.32,Wunderground v.1.15,2013-06-21 20:38:00,
2013-06-21 15:40:00,70.7,66.6,29.91,ESE,120,15.0,20.0,87,0.00,,,0.32,Wunderground v.1.15,2013-06-21 20:40:00,
2013-06-21 15:42:00,70.8,66.4,29.91,ESE,118,15.0,20.0,86,0.00,,,0.32,Wunderground v.1.15,2013-06-21 20:42:00,
2013-06-21 15:44:00,70.8,66.7,29.91,ESE,122,15.0,21.0,87,0.00,,,0.32,Wunderground v.1.15,2013-06-21 20:44:00,
2013-06-21 15:50:00,71.0,66.3,29.91,ESE,113,16.0,16.0,85,0.00,,,0.32,Wunderground v.1.15,2013-06-21 20:50:00,
2013-06-21 15:52:00,71.1,66.4,29.91,ESE,109,16.0,22.0,85,0.00,,,0.32,Wunderground v.1.15,2013-06-21 20:52:00,
2013-06-21 15:58:00,71.4,66.3,29.91,SE,142,17.0,24.0,84,0.00,,,0.32,Wunderground v.1.15,2013-06-21 20:58:00,
2013-06-21 16:04:00,71.4,66.3,29.91,SSE,161,16.0,17.0,84,0.00,,,0.32,Wunderground v.1.15,2013-06-21 21:04:00,
2013-06-21 16:06:00,71.4,66.3,29.91,SSE,149,15.0,17.0,84,0.00,,,0.32,Wunderground v.1.15,2013-06-21 21:06:00,
2013-06-21 16:08:00,71.4,66.3,29.92,SE,131,15.0,17.0,84,0.00,,,0.32,Wunderground v.1.15,2013-06-21 21:08:00,
2013-06-21 16:12:00,71.4,66.3,29.92,SE,131,14.0,17.0,84,0.00,,,0.32,Wunderground v.1.15,2013-06-21 21:12:00,
2013-06-21 16:14:00,71.4,66.3,29.92,SSE,158,13.0,17.0,84,0.00,,,0.32,Wunderground v.1.15,2013-06-21 21:14:00,
2013-06-21 16:16:00,71.5,66.1,29.92,ESE,115,14.0,19.0,83,0.00,,,0.32,Wunderground v.1.15,2013-06-21 21:16:00,
2013-06-21 16:18:00,71.5,66.1,29.92,ESE,120,15.0,19.0,83,0.00,,,0.32,Wunderground v.1.15,2013-06-21 21:18:00,
2013-06-21 16:22:00,71.6,66.2,29.93,SE,129,16.0,21.0,83,0.00,,,0.32,Wunderground v.1.15,2013-06-21 21:22:00,
2013-06-21 16:24:00,71.6,66.2,29.93,SE,125,16.0,21.0,83,0.00,,,0.32,Wunderground v.1.15,2013-06-21 21:24:00,
2013-06-21 16:26:00,71.6,66.2,29.93,SSE,163,15.0,21.0,83,0.00,,,0.32,Wunderground v.1.15,2013-06-21 21:26:00,
2013-06-21 16:30:00,71.7,66.3,29.92,ESE,113,14.0,14.0,83,0.00,,,0.32,Wunderground v.1.15,2013-06-21 21:30:00,
2013-06-21 16:32:00,71.7,66.3,29.92,SSE,149,13.0,14.0,83,0.00,,,0.32,Wunderground v.1.15,2013-06-21 21:32:00,
2013-06-21 16:34:00,71.7,66.3,29.92,SE,128,13.0,14.0,83,0.00,,,0.32,Wunderground v.1.15,2013-06-21 21:34:00,
2013-06-21 16:36:00,71.7,66.3,29.92,SE,124,12.0,14.0,83,0.00,,,0.32,Wunderground v.1.15,2013-06-21 21:36:00,
2013-06-21 16:40:00,71.7,66.3,29.93,SE,129,10.0,10.0,83,0.00,,,0.32,Wunderground v.1.15,2013-06-21 21:40:00,
2013-06-21 16:46:00,72.0,66.6,29.92,ESE,115,10.0,15.0,83,0.00,,,0.32,Wunderground v.1.15,2013-06-21 21:46:00,
2013-06-21 16:50:00,72.1,66.3,29.93,SE,136,11.0,16.0,82,0.00,,,0.32,Wunderground v.1.15,2013-06-21 21:50:00,
2013-06-21 16:52:00,72.2,66.4,29.93,SSE,157,11.0,16.0,82,0.00,,,0.32,Wunderground v.1.15,2013-06-21 21:52:00,
2013-06-21 16:54:00,72.2,66.4,29.93,SE,141,10.0,16.0,82,0.00,,,0.32,Wunderground v.1.15,2013-06-21 21:54:00,
2013-06-21 17:00:00,72.2,66.4,29.92,SE,127,10.0,10.0,82,0.00,,,0.32,Wunderground v.1.15,2013-06-21 22:00:00,
2013-06-21 17:04:00,72.2,66.4,29.92,ESE,119,9.0,10.0,82,0.00,,,0.32,Wunderground v.1.15,2013-06-21 22:04:00,
2013-06-21 17:10:00,72.2,66.4,29.92,SE,141,8.0,8.0,82,0.00,,,0.32,Wunderground v.1.15,2013-06-21 22:10:00,
2013-06-21 17:12:00,72.3,66.5,29.93,SE,133,8.0,9.0,82,0.00,,,0.32,Wunderground v.1.15,2013-06-21 22:12:00,
2013-06-21 17:16:00,72.5,66.7,29.92,SE,143,8.0,11.0,82,0.00,,,0.32,Wunderground v.1.15,2013-06-21 22:16:00,
2013-06-21 17:18:00,72.6,66.8,29.92,SE,143,8.0,11.0,82,0.00,,,0.32,Wunderground v.1.15,2013-06-21 22:18:00,
2013-06-21 17:20:00,72.7,66.9,29.92,ESE,105,8.0,8.0,82,0.00,,,0.32,Wunderground v.1.15,2013-06-21 22:20:00,
2013-06-21 17:22:00,72.8,67.0,29.93,ESE,122,8.0,11.0,82,0.00,,,0.32,Wunderground v.1.15,2013-06-21 22:22:00,
2013-06-21 17:24:00,72.9,67.1,29.92,South,179,7.0,11.0,82,0.00,,,0.32,Wunderground v.1.15,2013-06-21 22:24:00,
2013-06-21 17:30:00,73.2,67.0,29.92,SE,131,9.0,9.0,81,0.00,,,0.32,Wunderground v.1.15,2013-06-21 22:30:00,
2013-06-21 17:34:00,73.4,67.2,29.93,South,188,9.0,9.0,81,0.00,,,0.32,Wunderground v.1.15,2013-06-21 22:34:00,
2013-06-21 17:36:00,73.5,67.3,29.92,SSE,167,9.0,9.0,81,0.00,,,0.32,Wunderground v.1.15,2013-06-21 22:36:00,
2013-06-21 17:40:00,73.6,67.4,29.93,East,80,8.0,8.0,81,0.00,,,0.32,Wunderground v.1.15,2013-06-21 22:40:00,
2013-06-21 17:42:00,73.7,67.5,29.93,East,94,8.0,9.0,81,0.00,,,0.32,Wunderground v.1.15,2013-06-21 22:42:00,
2013-06-21 17:44:00,73.7,67.5,29.93,SSE,168,7.0,9.0,81,0.00,,,0.32,Wunderground v.1.15,2013-06-21 22:44:00,
2013-06-21 17:46:00,73.7,67.5,29.92,SSW,208,7.0,15.0,81,0.00,,,0.32,Wunderground v.1.15,2013-06-21 22:46:00,
2013-06-21 17:48:00,73.7,67.5,29.92,South,180,8.0,15.0,81,0.00,,,0.32,Wunderground v.1.15,2013-06-21 22:48:00,
2013-06-21 17:54:00,73.8,68.0,29.92,SW,217,9.0,13.0,82,0.00,,,0.32,Wunderground v.1.15,2013-06-21 22:54:00,
2013-06-21 17:56:00,73.8,68.0,29.92,SSE,154,9.0,13.0,82,0.00,,,0.32,Wunderground v.1.15,2013-06-21 22:56:00,
2013-06-21 18:00:00,73.9,68.1,29.92,South,183,10.0,13.0,82,0.00,,,0.32,Wunderground v.1.15,2013-06-21 23:00:00,
2013-06-21 18:02:00,73.9,68.1,29.92,SSW,193,11.0,13.0,82,0.00,,,0.32,Wunderground v.1.15,2013-06-21 23:02:00,
2013-06-21 18:04:00,73.9,68.1,29.91,SSE,165,10.0,13.0,82,0.00,,,0.32,Wunderground v.1.15,2013-06-21 23:04:00,
2013-06-21 18:08:00,74.0,68.2,29.91,South,189,11.0,15.0,82,0.00,,,0.32,Wunderground v.1.15,2013-06-21 23:08:00,
2013-06-21 18:10:00,74.1,68.3,29.91,SSE,147,10.0,11.0,82,0.00,,,0.32,Wunderground v.1.15,2013-06-21 23:10:00,
2013-06-21 18:12:00,74.1,68.3,29.91,South,181,10.0,15.0,82,0.00,,,0.32,Wunderground v.1.15,2013-06-21 23:12:00,
2013-06-21 18:14:00,74.2,68.3,29.91,SSE,167,11.0,15.0,82,0.00,,,0.32,Wunderground v.1.15,2013-06-21 23:14:00,
2013-06-21 18:18:00,74.4,68.2,29.91,South,172,11.0,15.0,81,0.00,,,0.32,Wunderground v.1.15,2013-06-21 23:18:00,
2013-06-21 18:22:00,74.5,68.3,29.91,SSE,155,11.0,19.0,81,0.00,,,0.32,Wunderground v.1.15,2013-06-21 23:22:00,
2013-06-21 18:24:00,74.6,68.4,29.91,ESE,108,11.0,19.0,81,0.00,,,0.32,Wunderground v.1.15,2013-06-21 23:24:00,
2013-06-21 18:30:00,74.7,68.5,29.92,South,181,9.0,9.0,81,0.00,,,0.32,Wunderground v.1.15,2013-06-21 23:30:00,
2013-06-21 18:32:00,74.8,68.6,29.92,South,175,9.0,14.0,81,0.00,,,0.32,Wunderground v.1.15,2013-06-21 23:32:00,
2013-06-21 18:34:00,74.8,68.6,29.92,SSE,163,9.0,14.0,81,0.00,,,0.32,Wunderground v.1.15,2013-06-21 23:34:00,
2013-06-21 18:38:00,74.8,68.6,29.92,SSE,164,9.0,14.0,81,0.00,,,0.32,Wunderground v.1.15,2013-06-21 23:38:00,
2013-06-21 18:40:00,74.8,68.6,29.92,SSE,154,9.0,9.0,81,0.00,,,0.32,Wunderground v.1.15,2013-06-21 23:40:00,
2013-06-21 18:42:00,74.8,68.9,29.92,South,181,8.0,9.0,82,0.00,,,0.32,Wunderground v.1.15,2013-06-21 23:42:00,
2013-06-21 18:44:00,74.8,68.9,29.92,South,176,8.0,9.0,82,0.00,,,0.32,Wunderground v.1.15,2013-06-21 23:44:00,
2013-06-21 18:46:00,74.8,68.9,29.92,South,178,7.0,9.0,82,0.00,,,0.32,Wunderground v.1.15,2013-06-21 23:46:00,
2013-06-21 18:48:00,74.9,69.0,29.92,NE,56,7.0,9.0,82,0.00,,,0.32,Wunderground v.1.15,2013-06-21 23:48:00,
2013-06-21 18:50:00,74.8,68.6,29.92,SSW,210,6.0,7.0,81,0.00,,,0.32,Wunderground v.1.15,2013-06-21 23:50:00,
2013-06-21 18:54:00,74.8,68.6,29.92,South,175,7.0,10.0,81,0.00,,,0.32,Wunderground v.1.15,2013-06-21 23:54:00,
2013-06-21 18:56:00,74.9,68.7,29.92,East,86,8.0,10.0,81,0.00,,,0.32,Wunderground v.1.15,2013-06-21 23:56:00,
2013-06-21 18:58:00,74.9,68.7,29.91,South,170,8.0,10.0,81,0.00,,,0.32,Wunderground v.1.15,2013-06-21 23:58:00,
2013-06-21 19:00:00,74.9,68.7,29.91,ESE,113,9.0,9.0,81,0.00,,,0.32,Wunderground v.1.15,2013-06-22 00:00:00,
2013-06-21 19:04:00,75.0,68.8,29.91,South,172,8.0,11.0,81,0.00,,,0.32,Wunderground v.1.15,2013-06-22 00:04:00,
2013-06-21 19:06:00,75.1,68.9,29.91,SSE,162,8.0,12.0,81,0.00,,,0.32,Wunderground v.1.15,2013-06-22 00:06:00,
2013-06-21 19:08:00,75.1,68.9,29.91,South,180,8.0,12.0,81,0.00,,,0.32,Wunderground v.1.15,2013-06-22 00:08:00,
2013-06-21 19:10:00,75.1,68.5,29.91,SSW,197,8.0,8.0,80,0.00,,,0.32,Wunderground v.1.15,2013-06-22 00:10:00,
2013-06-21 19:14:00,75.3,68.7,29.92,SSE,153,8.0,9.0,80,0.00,,,0.32,Wunderground v.1.15,2013-06-22 00:14:00,
2013-06-21 19:16:00,75.3,68.7,29.92,South,177,8.0,9.0,80,0.00,,,0.32,Wunderground v.1.15,2013-06-22 00:16:00,
2013-06-21 19:20:00,75.4,68.8,29.92,SW,214,7.0,7.0,80,0.00,,,0.32,Wunderground v.1.15,2013-06-22 00:20:00,
2013-06-21 19:22:00,75.4,68.8,29.92,SSE,160,7.0,7.0,80,0.00,,,0.32,Wunderground v.1.15,2013-06-22 00:22:00,
2013-06-21 19:24:00,75.4,68.8,29.92,South,188,7.0,7.0,80,0.00,,,0.32,Wunderground v.1.15,2013-06-22 00:24:00,
2013-06-21 19:28:00,75.5,68.5,29.92,South,191,6.0,11.0,79,0.00,,,0.32,Wunderground v.1.15,2013-06-22 00:28:00,
2013-06-21 19:30:00,75.5,68.5,29.92,SSW,192,6.0,6.0,79,0.00,,,0.32,Wunderground v.1.15,2013-06-22 00:30:00,
2013-06-21 19:34:00,75.6,68.3,29.92,South,177,5.0,10.0,78,0.00,,,0.32,Wunderground v.1.15,2013-06-22 00:34:00,
2013-06-21 19:36:00,75.7,68.4,29.92,South,169,4.0,10.0,78,0.00,,,0.32,Wunderground v.1.15,2013-06-22 00:36:00,
2013-06-21 19:40:00,75.8,68.4,29.92,SSE,148,4.0,4.0,78,0.00,,,0.32,Wunderground v.1.15,2013-06-22 00:40:00,
2013-06-21 19:42:00,75.8,68.1,29.92,SE,143,3.0,7.0,77,0.00,,,0.32,Wunderground v.1.15,2013-06-22 00:42:00,
2013-06-21 19:46:00,75.8,68.1,29.93,SE,124,3.0,7.0,77,0.00,,,0.32,Wunderground v.1.15,2013-06-22 00:46:00,
2013-06-21 19:48:00,75.8,67.7,29.93,SSE,155,4.0,7.0,76,0.00,,,0.32,Wunderground v.1.15,2013-06-22 00:48:00,
2013-06-21 19:50:00,75.7,68.0,29.93,ESE,117,4.0,7.0,77,0.00,,,0.32,Wunderground v.1.15,2013-06-22 00:50:00,
2013-06-21 19:52:00,75.7,68.0,29.93,SE,133,4.0,7.0,77,0.00,,,0.32,Wunderground v.1.15,2013-06-22 00:52:00,
2013-06-21 19:56:00,75.7,68.0,29.94,ESE,115,5.0,7.0,77,0.00,,,0.32,Wunderground v.1.15,2013-06-22 00:56:00,
2013-06-21 20:02:00,75.5,68.2,29.94,SE,124,5.0,7.0,78,0.00,,,0.32,Wunderground v.1.15,2013-06-22 01:02:00,
2013-06-21 20:04:00,75.5,68.5,29.95,ESE,117,5.0,7.0,79,0.00,,,0.32,Wunderground v.1.15,2013-06-22 01:04:00,
2013-06-21 20:08:00,75.4,68.4,29.95,SE,136,4.0,7.0,79,0.00,,,0.32,Wunderground v.1.15,2013-06-22 01:08:00,
2013-06-21 20:12:00,75.3,68.7,29.95,ESE,119,4.0,7.0,80,0.00,,,0.32,Wunderground v.1.15,2013-06-22 01:12:00,
2013-06-21 20:14:00,75.2,68.6,29.95,East,101,4.0,7.0,80,0.00,,,0.32,Wunderground v.1.15,2013-06-22 01:14:00,
2013-06-21 20:20:00,74.9,68.7,29.95,SE,124,4.0,7.0,81,0.00,,,0.32,Wunderground v.1.15,2013-06-22 01:20:00,
2013-06-21 20:22:00,74.8,68.6,29.95,SE,129,3.0,7.0,81,0.00,,,0.32,Wunderground v.1.15,2013-06-22 01:22:00,
2013-06-21 20:26:00,74.8,68.9,29.95,SSE,160,4.0,7.0,82,0.00,,,0.32,Wunderground v.1.15,2013-06-22 01:26:00,
2013-06-21 20:28:00,74.8,68.9,29.96,SSE,156,3.0,7.0,82,0.00,,,0.32,Wunderground v.1.15,2013-06-22 01:28:00,
2013-06-21 20:34:00,74.6,68.7,29.96,East,86,3.0,7.0,82,0.00,,,0.32,Wunderground v.1.15,2013-06-22 01:34:00,
2013-06-21 20:36:00,74.5,68.6,29.96,SE,137,3.0,7.0,82,0.00,,,0.32,Wunderground v.1.15,2013-06-22 01:36:00,
2013-06-21 20:38:00,74.4,68.9,29.96,SSE,150,3.0,7.0,83,0.00,,,0.32,Wunderground v.1.15,2013-06-22 01:38:00,
2013-06-21 20:40:00,74.3,68.8,29.96,SE,127,3.0,3.0,83,0.00,,,0.32,Wunderground v.1.15,2013-06-22 01:40:00,
2013-06-21 20:42:00,74.3,68.8,29.96,ESE,114,3.0,7.0,83,0.00,,,0.32,Wunderground v.1.15,2013-06-22 01:42:00,
2013-06-21 20:44:00,74.2,68.7,29.96,SE,127,4.0,7.0,83,0.00,,,0.32,Wunderground v.1.15,2013-06-22 01:44:00,
2013-06-21 20:48:00,74.0,68.9,29.97,SE,143,3.0,7.0,84,0.00,,,0.32,Wunderground v.1.15,2013-06-22 01:48:00,
2013-06-21 20:50:00,73.9,68.8,29.97,ESE,117,3.0,7.0,84,0.00,,,0.32,Wunderground v.1.15,2013-06-22 01:50:00,
2013-06-21 20:52:00,73.8,69.0,29.97,South,174,3.0,7.0,85,0.00,,,0.32,Wunderground v.1.15,2013-06-22 01:52:00,
2013-06-21 20:58:00,73.7,68.9,29.97,SE,143,2.0,7.0,85,0.00,,,0.32,Wunderground v.1.15,2013-06-22 01:58:00,
2013-06-21 21:00:00,73.7,68.9,29.97,SE,134,2.0,2.0,85,0.00,,,0.32,Wunderground v.1.15,2013-06-22 02:00:00,
2013-06-21 21:02:00,73.6,69.2,29.97,South,184,1.0,7.0,86,0.00,,,0.32,Wunderground v.1.15,2013-06-22 02:02:00,
2013-06-21 21:04:00,73.5,69.1,29.98,SSE,158,1.0,7.0,86,0.00,,,0.32,Wunderground v.1.15,2013-06-22 02:04:00,
2013-06-21 21:06:00,73.4,69.0,29.98,South,174,1.0,7.0,86,0.00,,,0.32,Wunderground v.1.15,2013-06-22 02:06:00,
2013-06-21 21:08:00,73.3,68.9,29.98,South,185,2.0,7.0,86,0.00,,,0.32,Wunderground v.1.15,2013-06-22 02:08:00,
2013-06-21 21:12:00,73.2,69.1,29.98,SSE,163,1.0,7.0,87,0.00,,,0.32,Wunderground v.1.15,2013-06-22 02:12:00,
2013-06-21 21:16:00,73.1,69.0,29.98,SSE,153,1.0,7.0,87,0.00,,,0.32,Wunderground v.1.15,2013-06-22 02:16:00,
2013-06-21 21:18:00,73.1,69.0,29.98,South,170,1.0,7.0,87,0.00,,,0.32,Wunderground v.1.15,2013-06-22 02:18:00,
2013-06-21 21:20:00,73.0,68.9,29.98,SE,133,1.0,7.0,87,0.00,,,0.32,Wunderground v.1.15,2013-06-22 02:20:00,
2013-06-21 21:22:00,72.9,69.1,29.98,ESE,117,1.0,7.0,88,0.00,,,0.32,Wunderground v.1.15,2013-06-22 02:22:00,
2013-06-21 21:26:00,72.9,69.1,29.98,SE,124,1.0,7.0,88,0.00,,,0.32,Wunderground v.1.15,2013-06-22 02:26:00,
2013-06-21 21:28:00,72.9,69.1,29.98,SSE,162,1.0,7.0,88,0.00,,,0.32,Wunderground v.1.15,2013-06-22 02:28:00,
2013-06-21 21:30:00,72.9,69.1,29.98,South,186,1.0,1.0,88,0.00,,,0.32,Wunderground v.1.15,2013-06-22 02:30:00,
2013-06-21 21:32:00,72.9,69.1,29.99,South,170,1.0,7.0,88,0.00,,,0.32,Wunderground v.1.15,2013-06-22 02:32:00,
2013-06-21 21:34:00,72.9,69.1,29.99,South,174,1.0,7.0,88,0.00,,,0.32,Wunderground v.1.15,2013-06-22 02:34:00,
2013-06-21 21:36:00,72.9,69.1,29.99,South,184,1.0,7.0,88,0.00,,,0.32,Wunderground v.1.15,2013-06-22 02:36:00,
2013-06-21 21:38:00,72.8,69.0,29.99,SSW,195,1.0,7.0,88,0.00,,,0.32,Wunderground v.1.15,2013-06-22 02:38:00,
2013-06-21 21:42:00,72.8,69.0,29.99,SSE,160,1.0,7.0,88,0.00,,,0.32,Wunderground v.1.15,2013-06-22 02:42:00,
2013-06-21 21:44:00,72.8,69.0,29.99,SE,145,0.0,7.0,88,0.00,,,0.32,Wunderground v.1.15,2013-06-22 02:44:00,
2013-06-21 21:46:00,72.8,69.0,29.99,SE,145,0.0,7.0,88,0.00,,,0.32,Wunderground v.1.15,2013-06-22 02:46:00,
2013-06-21 21:52:00,72.7,68.9,29.99,ESE,120,0.0,7.0,88,0.00,,,0.32,Wunderground v.1.15,2013-06-22 02:52:00,
2013-06-21 21:54:00,72.7,69.3,29.99,ESE,115,0.0,7.0,89,0.00,,,0.32,Wunderground v.1.15,2013-06-22 02:54:00,
2013-06-21 21:56:00,72.6,69.2,29.99,SE,127,1.0,7.0,89,0.00,,,0.32,Wunderground v.1.15,2013-06-22 02:56:00,
2013-06-21 21:58:00,72.6,69.2,30.00,ESE,121,2.0,7.0,89,0.00,,,0.32,Wunderground v.1.15,2013-06-22 02:58:00,
2013-06-21 22:00:00,72.6,69.2,29.99,ESE,117,2.0,7.0,89,0.00,,,0.32,Wunderground v.1.15,2013-06-22 03:00:00,
2013-06-21 22:04:00,72.6,69.2,30.00,SE,127,2.0,7.0,89,0.00,,,0.32,Wunderground v.1.15,2013-06-22 03:04:00,
2013-06-21 22:06:00,72.6,69.2,30.00,ESE,121,2.0,7.0,89,0.00,,,0.32,Wunderground v.1.15,2013-06-22 03:06:00,
2013-06-21 22:08:00,72.6,69.2,29.99,SE,141,2.0,7.0,89,0.00,,,0.32,Wunderground v.1.15,2013-06-22 03:08:00,
2013-06-21 22:14:00,72.5,69.1,29.99,SE,131,2.0,7.0,89,0.00,,,0.32,Wunderground v.1.15,2013-06-22 03:14:00,
2013-06-21 22:20:00,72.5,69.1,30.00,South,169,1.0,7.0,89,0.00,,,0.32,Wunderground v.1.15,2013-06-22 03:20:00,
2013-06-21 22:24:00,72.5,69.4,29.99,ESE,103,1.0,7.0,90,0.00,,,0.32,Wunderground v.1.15,2013-06-22 03:24:00,
2013-06-21 22:28:00,72.6,69.2,29.99,SSE,148,3.0,7.0,89,0.00,,,0.32,Wunderground v.1.15,2013-06-22 03:28:00,
2013-06-21 22:32:00,72.9,69.5,29.99,ESE,115,4.0,8.0,89,0.00,,,0.32,Wunderground v.1.15,2013-06-22 03:32:00,
2013-06-21 22:34:00,73.0,69.6,29.99,ESE,122,5.0,8.0,89,0.00,,,0.32,Wunderground v.1.15,2013-06-22 03:34:00,
2013-06-21 22:38:00,73.3,69.5,29.99,SE,124,6.0,8.0,88,0.00,,,0.32,Wunderground v.1.15,2013-06-22 03:38:00,
2013-06-21 22:44:00,73.5,69.7,29.99,SE,143,6.0,7.0,88,0.00,,,0.32,Wunderground v.1.15,2013-06-22 03:44:00,
2013-06-21 22:46:00,73.6,69.8,29.99,ESE,110,6.0,7.0,88,0.00,,,0.32,Wunderground v.1.15,2013-06-22 03:46:00,
2013-06-21 22:48:00,73.7,69.9,29.99,SE,136,6.0,9.0,88,0.00,,,0.32,Wunderground v.1.15,2013-06-22 03:48:00,
2013-06-21 22:50:00,73.8,69.7,29.99,SE,131,6.0,7.0,87,0.00,,,0.32,Wunderground v.1.15,2013-06-22 03:50:00,
2013-06-21 22:52:00,73.9,69.8,29.99,ESE,112,7.0,7.0,87,0.00,,,0.32,Wunderground v.1.15,2013-06-22 03:52:00,
2013-06-21 22:56:00,73.9,69.8,29.99,ESE,120,7.0,10.0,87,0.00,,,0.32,Wunderground v.1.15,2013-06-22 03:56:00,
2013-06-21 23:02:00,74.0,69.9,29.99,SE,141,6.0,7.0,87,0.00,,,0.32,Wunderground v.1.15,2013-06-22 04:02:00,
2013-06-21 23:08:00,74.0,69.9,29.99,SE,141,6.0,8.0,87,0.00,,,0.32,Wunderground v.1.15,2013-06-22 04:08:00,
2013-06-21 23:12:00,74.1,70.0,29.99,ESE,112,6.0,8.0,87,0.00,,,0.32,Wunderground v.1.15,2013-06-22 04:12:00,
2013-06-21 23:14:00,74.1,70.0,29.99,ESE,116,6.0,8.0,87,0.00,,,0.32,Wunderground v.1.15,2013-06-22 04:14:00,
2013-06-21 23:18:00,74.2,69.7,29.99,SE,126,6.0,8.0,86,0.00,,,0.32,Wunderground v.1.15,2013-06-22 04:18:00,
2013-06-21 23:20:00,74.2,70.1,29.99,ESE,122,6.0,8.0,87,0.00,,,0.32,Wunderground v.1.15,2013-06-22 04:20:00,
2013-06-21 23:22:00,74.2,70.1,29.99,SSW,205,6.0,8.0,87,0.00,,,0.32,Wunderground v.1.15,2013-06-22 04:22:00,
2013-06-21 23:24:00,74.2,70.1,29.99,SE,133,6.0,8.0,87,0.00,,,0.32,Wunderground v.1.15,2013-06-22 04:24:00,
2013-06-21 23:28:00,74.3,69.8,29.98,South,170,6.0,12.0,86,0.00,,,0.32,Wunderground v.1.15,2013-06-22 04:28:00,
2013-06-21 23:30:00,74.3,70.2,29.98,SSE,153,6.0,6.0,87,0.00,,,0.32,Wunderground v.1.15,2013-06-22 04:30:00,
2013-06-21 23:32:00,74.3,70.2,29.98,ESE,121,6.0,7.0,87,0.00,,,0.32,Wunderground v.1.15,2013-06-22 04:32:00,
2013-06-21 23:34:00,74.3,70.2,29.98,South,172,5.0,7.0,87,0.00,,,0.32,Wunderground v.1.15,2013-06-22 04:34:00,
2013-06-21 23:36:00,74.2,70.1,29.98,SSE,156,5.0,7.0,87,0.00,,,0.32,Wunderground v.1.15,2013-06-22 04:36:00,
2013-06-21 23:40:00,74.2,70.1,29.98,ESE,114,5.0,7.0,87,0.00,,,0.32,Wunderground v.1.15,2013-06-22 04:40:00,
2013-06-21 23:42:00,74.2,70.1,29.98,East,90,5.0,7.0,87,0.00,,,0.32,Wunderground v.1.15,2013-06-22 04:42:00,
2013-06-21 23:44:00,74.2,70.1,29.97,South,169,5.0,7.0,87,0.00,,,0.32,Wunderground v.1.15,2013-06-22 04:44:00,
2013-06-21 23:46:00,74.2,70.1,29.97,South,174,5.0,7.0,87,0.00,,,0.32,Wunderground v.1.15,2013-06-22 04:46:00,
2013-06-21 23:50:00,74.2,70.1,29.96,SE,124,5.0,7.0,87,0.00,,,0.32,Wunderground v.1.15,2013-06-22 04:50:00,
2013-06-21 23:52:00,74.2,70.1,29.97,East,92,5.0,7.0,87,0.00,,,0.32,Wunderground v.1.15,2013-06-22 04:52:00,
2013-06-21 23:54:00,74.2,70.1,29.96,ESE,112,5.0,7.0,87,0.00,,,0.32,Wunderground v.1.15,2013-06-22 04:54:00,
2013-06-21 23:56:00,74.2,70.1,29.96,ESE,110,5.0,7.0,87,0.00,,,0.32,Wunderground v.1.15,2013-06-22 04:56:00,
2013-06-21 23:58:00,74.2,70.1,29.96,SSE,167,5.0,7.0,87,0.00,,,0.00,Wunderground v.1.15,2013-06-22 04:58:00,